Weather History for KAPC - April, 2014

Change the Weather History Date:

Wednesday, April 9, 2014

  Actual Average Record
Temperature  
Mean Temperature 59 °F 54 °F  
Max Temperature 69 °F 67 °F 77 °F (2013)
Min Temperature 49 °F 41 °F 30 °F (1929)
Degree Days  
Heating Degree Days 6    
Month to date heating degree days 84  
Since 1 July heating degree days 2594  
Cooling Degree Days 0    
Month to date cooling degree days 0  
Year to date cooling degree days 0  
Growing Degree Days 9 (Base 50)    
Moisture  
Dew Point 52 °F    
Average Humidity 87    
Maximum Humidity 100    
Minimum Humidity 73    
Precipitation  
Precipitation 0.00 in - 1.00 in (1965)
Month to date precipitation 0.98  
Year to date precipitation 7.28  
Since 1 July precipitation 9.48  
Sea Level Pressure  
Sea Level Pressure 30.03 in    
Wind  
Wind Speed 6 mph (SW)    
Max Wind Speed 13 mph    
Max Gust Speed 15 mph    
Visibility 7 miles    
Events Fog    
T = Trace of Precipitation, MM = Missing Value Source: NWS Daily Summary

Daily Weather History Graph

Daily Weather History Graph

Search for Another Location

Airport or City:

Trip Planner

Search our weather history database for the weather conditions in past years. The results will help you decide how hot, cold, wet, or windy it might be!

Date:

Astronomy

Apr. 09, 2014 Rise Set
Actual Time 6:42 AM PDT 7:39 PM PDT
Civil Twilight 6:15 AM PDT 8:06 PM PDT
Nautical Twilight 5:43 AM PDT 8:38 PM PDT
Astronomical Twilight 5:10 AM PDT 9:12 PM PDT
Moon 2:37 PM PDT (4/9) 3:29 AM PDT (4/9)
Length of Visible Light 13h 51m
Length of Day
12h 57m
Waxing Gibbous, 72% of the Moon is Illuminated
Apr 9
Waxing Gibbous
Apr 15
Full
Apr 22
Last Quarter
Apr 28
New
May 6
First Quarter

Hourly Weather History & Observations

Time (PDT) Temp. Dew Point Humidity Pressure Visibility Wind Dir Wind Speed Gust Speed Precip Events Conditions
12:54 AM 55.0 °F 54.0 °F 96% 30.03 in 10.0 mi Calm Calm - N/A   Clear
1:54 AM 55.0 °F 54.0 °F 96% 30.04 in 10.0 mi SSW 8.1 mph - N/A   Clear
2:54 AM 53.1 °F 51.1 °F 93% 30.03 in 10.0 mi SE 5.8 mph - N/A   Clear
3:54 AM 50.0 °F 50.0 °F 100% 30.02 in 10.0 mi SW 3.5 mph - N/A   Clear
4:54 AM 51.1 °F 51.1 °F 100% 30.02 in 10.0 mi SSW 9.2 mph - N/A   Clear
5:22 AM 50.0 °F 50.0 °F 100% 30.05 in 10.0 mi SW 10.4 mph - N/A   Partly Cloudy
5:38 AM 51.1 °F 50.0 °F 96% 30.06 in 9.0 mi SW 6.9 mph - N/A   Mostly Cloudy
5:46 AM 51.1 °F 51.1 °F 100% 30.06 in 1.5 mi SW 6.9 mph - N/A   Mostly Cloudy
5:52 AM 51.8 °F 51.8 °F 100% 30.05 in 0.5 mi SW 4.6 mph - N/A Fog Fog
5:54 AM 51.1 °F 51.1 °F 100% 30.03 in 0.5 mi SW 4.6 mph - N/A Fog Fog
6:03 AM 51.1 °F 51.1 °F 100% 30.06 in 1.0 mi SSW 4.6 mph - N/A   Mist
6:13 AM 51.1 °F 51.1 °F 100% 30.06 in 0.5 mi SW 5.8 mph - N/A Fog Fog
6:54 AM 50.0 °F 50.0 °F 100% 30.04 in 0.2 mi SW 8.1 mph - N/A Fog Fog
7:54 AM 50.0 °F 50.0 °F 100% 30.06 in 0.2 mi West 5.8 mph - N/A Fog Fog
8:16 AM 51.1 °F 51.1 °F 100% 30.08 in 1.0 mi West 5.8 mph - N/A   Mist
8:24 AM 51.1 °F 51.1 °F 100% 30.09 in 0.5 mi West 5.8 mph - N/A Fog Fog
8:49 AM 51.8 °F 51.8 °F 100% 30.09 in 3.0 mi West 4.6 mph - N/A   Overcast
8:54 AM 51.1 °F 51.1 °F 100% 30.06 in 4.0 mi West 4.6 mph - N/A   Overcast
9:54 AM 52.0 °F 52.0 °F 100% 30.07 in 8.0 mi WSW 5.8 mph - N/A   Overcast
10:11 AM 52.0 °F 52.0 °F 100% 30.09 in 10.0 mi West 4.6 mph - N/A   Overcast
10:40 AM 52.0 °F 52.0 °F 100% 30.09 in 10.0 mi Calm Calm - N/A   Overcast
10:54 AM 54.0 °F 52.0 °F 93% 30.07 in 10.0 mi Calm Calm - N/A   Overcast
11:49 AM 57.2 °F 53.6 °F 88% 30.08 in 10.0 mi SW 4.6 mph - N/A   Partly Cloudy
11:54 AM 57.9 °F 54.0 °F 87% 30.05 in 10.0 mi Variable 3.5 mph - N/A   Partly Cloudy
12:54 PM 62.1 °F 55.0 °F 78% 30.03 in 10.0 mi South 5.8 mph - N/A   Clear
1:54 PM 64.0 °F 55.9 °F 75% 30.02 in 10.0 mi SSW 3.5 mph - N/A   Clear
2:54 PM 66.9 °F 57.0 °F 70% 30.00 in 10.0 mi Variable 5.8 mph - N/A   Clear
3:54 PM 68.0 °F 59.0 °F 73% 29.98 in 10.0 mi SW 8.1 mph - N/A   Clear
4:54 PM 64.9 °F 57.0 °F 75% 29.96 in 10.0 mi SSW 9.2 mph - N/A   Clear
5:54 PM 66.0 °F 57.0 °F 73% 29.96 in 10.0 mi SSW 10.4 mph - N/A   Clear
6:54 PM 62.1 °F 57.0 °F 84% 29.95 in 10.0 mi South 8.1 mph - N/A   Clear
7:54 PM 60.1 °F 55.9 °F 86% 29.96 in 10.0 mi Calm Calm - N/A   Clear
8:54 PM 54.0 °F 46.9 °F 77% 29.97 in 10.0 mi NW 3.5 mph - N/A   Clear
9:54 PM 51.1 °F 48.9 °F 92% 29.99 in 10.0 mi SSW 8.1 mph - N/A   Clear
10:54 PM 51.1 °F 50.0 °F 96% 29.99 in 10.0 mi SSW 9.2 mph - N/A   Clear
11:39 PM 51.1 °F 48.9 °F 92% 30.03 in 10.0 mi SW 4.6 mph - N/A   Scattered Clouds
11:54 PM 51.1 °F 50.0 °F 96% 30.00 in 10.0 mi West 4.6 mph - N/A   Mostly Cloudy